Location: Lafig�re
(44.4503°N, 4.0357°E)
Time: 16:36:28
(UTC+00:00)

USA 186 - Pass Details

Date: 24 September 2020
Orbit: 261 x 425 km, 96.9° (Epoch: 12 October)

Event Time Altitude Azimuth Distance (km) Brightness Sun altitude
Exits shadow 19:42:53 39° 240° (WSW) 654 2.9 -22.8°
Maximum altitude 19:43:17 41° 262° (W) 630 3.0 -22.8°
Drops below altitude 10° 19:46:25 10° 334° (NNW) 1,531 5.2 -23.4°
Sets 19:48:33 0° 342° (NNW) 2,408 6.2 -23.7°
